[[{"header":{"parameterUnit":"m.s-1","parameterCategory":1,"la1":30.2991,"la2":30.254,"lo1":-89.0895,"lo2":-89.0444,"dy":0.0017,"dx":0.0017,"nx":28,"ny":28,"refTime":"2025-12-02T03:00:00:Z","depth":0,"parameterNumber":2,"parameterNumberName":"U-component_of_WINDS"},"data":[0,0,0,0,0,0,0,0,0,0,0,0,0,0,0,0,0,0,0,0,0,0,0,0,0,0,0,0,0,0,0,0,0,0,0,0,0,0,0,0,0,0,0,0,0,0,0,0,0,0,0,0,0,0,0,0,0,0,-2.8468,-2.8468,0,-2.8435,-2.8434,-2.8434,-2.8343,-2.8341,-2.8339,-2.8337,-2.8305,-2.8306,-2.8307,0,0,0,0,0,0,0,0,0,0,0,0,0,-2.8457,-2.8458,-2.8468,-2.8468,-2.8468,-2.8435,-2.8434,-2.8434,-2.8343,-2.8341,-2.8338,-2.8336,-2.8305,-2.8306,-2.8308,0,0,0,0,0,0,0,0,0,0,0,0,0,-2.8447,-2.8458,-2.8469,-2.8418,-2.8413,-2.8435,-2.8434,-2.8434,-2.8344,-2.8341,-2.8338,-2.8335,-2.8305,-2.8306,-2.8308,-2.8376,0,0,-2.8312,-2.8313,0,0,0,0,0,0,0,0,-2.8447,-2.8447,-2.8426,-2.8422,-2.8416,-2.839,-2.8419,-2.8415,-2.8344,-2.837,-2.8337,-2.8334,-2.8336,-2.8335,-2.8335,-2.8375,-2.8373,-2.8312,-2.8313,-2.8314,-2.8314,0,0,0,0,0,0,0,-2.8448,-2.8448,-2.8455,-2.8426,-2.842,-2.8398,-2.8394,-2.8417,-2.837,-2.8368,-2.8361,-2.8358,-2.8333,-2.8334,-2.8334,-2.8373,-2.8312,-2.8314,-2.8315,-2.8315,-2.8466,-2.8469,0,0,0,0,0,0,-2.8456,-2.8449,-2.8456,-2.8454,-2.8425,-2.8401,-2.8396,-2.8402,-2.837,-2.8362,-2.8361,-2.8354,-2.8333,-2.8332,-2.8332,-2.8409,-2.8314,-2.8315,-2.8316,-2.8463,-2.8467,-2.847,0,0,0,0,0,0,-2.8456,-2.8457,-2.8458,-2.845,-2.8448,-2.8404,-2.8412,-2.8402,-2.8403,-2.8364,-2.8356,-2.837,-2.833,-2.833,-2.8366,-2.8407,-2.8316,-2.8317,-2.846,-2.8464,-2.8469,-2.8565,0,0,0,0,0,0,-2.8456,-2.8458,-2.8483,-2.8451,-2.8449,-2.8491,-2.8414,-2.8404,-2.8406,-2.8397,-2.8371,-2.8364,-2.8328,-2.8364,-2.8367,-2.8407,-2.8318,-2.8456,-2.8462,-2.8467,-2.8558,-2.8572,-2.8585,0,0,0,0,0,-2.8456,-2.8512,-2.8484,-2.8486,-2.8479,-2.8493,-2.8492,-2.8449,-2.8409,-2.8434,-2.8409,-2.8365,-2.8402,-2.8368,-2.8371,-2.8413,-2.8453,-2.846,-2.8467,-2.8552,-2.8569,-2.8584,0,0,0,0,0,0,-2.855,-2.8507,-2.8476,-2.8523,-2.8512,-2.8478,-2.8508,-2.8469,-2.847,-2.8462,-2.841,-2.8405,-2.8447,-2.8434,-2.8396,-2.8477,-2.842,-2.8428,-2.8484,-2.85,-2.8514,-2.8515,-2.832,0,0,0,0,0,-2.8576,-2.859,-2.8552,-2.8598,-2.8594,-2.8552,-2.8557,-2.8525,-2.8512,-2.8507,-2.8485,-2.8475,-2.8485,-2.8492,-2.8499,-2.8556,-2.8549,-2.8586,-2.86,-2.8611,-2.8618,-2.8647,-2.8663,-2.8493,-2.8493,-2.8493,0,0,-2.863,-2.8608,-2.8621,-2.8616,-2.8604,-2.8621,-2.8549,-2.857,-2.8582,-2.8511,-2.8542,-2.8526,-2.8512,-2.8558,-2.8577,-2.8548,-2.8663,-2.862,-2.8629,-2.863,-2.8656,-2.8672,-2.8686,-2.8498,-2.8497,-2.8497,0,0,-2.8737,-2.8723,-2.8758,-2.8748,-2.873,-2.8702,-2.8711,-2.8683,-2.8669,-2.8699,-2.8646,-2.8661,-2.8678,-2.867,-2.8668,-2.8773,-2.8732,-2.8777,-2.8847,-2.8876,-2.8889,-2.89,-2.8937,-2.8951,-2.8785,-2.8785,-2.8785,0,-2.8807,-2.8829,-2.8782,-2.8806,-2.8805,-2.8741,-2.8777,-2.877,-2.8756,-2.8758,-2.8725,-2.8745,-2.8731,-2.8775,-2.88,-2.8802,-2.881,-2.8779,-2.8891,-2.8902,-2.8912,-2.8946,-2.896,-2.879,-2.879,-2.8789,-2.8789,0,-2.8915,-2.8932,-2.8963,-2.895,-2.8953,-2.8984,-2.8942,-2.8951,-2.8919,-2.8895,-2.8927,-2.8908,-2.891,-2.8918,-2.8888,-2.8957,-2.894,-2.89,-2.8841,-2.8934,-2.8966,-2.8978,-2.8798,-2.8796,-2.8795,-2.8793,0,0,-2.9079,-2.904,-2.9052,-2.9045,-2.9022,-2.9034,-2.9062,-2.9062,-2.9071,-2.9065,-2.9086,-2.9103,-2.9066,-2.9064,-2.9033,-2.9058,-2.9142,-2.9015,-2.9014,-2.9038,-2.9217,-2.9246,-2.9262,-2.9115,-2.9117,-2.9119,-2.9218,0,-2.9179,-2.9223,-2.9181,-2.9233,-2.9248,-2.9188,-2.9212,-2.9201,-2.918,-2.919,-2.9166,-2.9179,-2.9129,-2.9128,-2.915,-2.9127,-2.9177,-2.9119,-2.9135,-2.9136,-2.9139,-2.9278,-2.9309,-2.9403,-2.923,-2.9232,-2.9233,0,-2.9301,-2.9299,-2.9352,-2.9325,-2.9329,-2.9352,-2.9349,-2.9359,-2.9346,-2.9329,-2.9327,-2.9288,-2.9314,-2.9259,-2.9294,-2.9256,-2.926,-2.925,-2.9253,-2.9251,-2.9189,-2.928,-2.9432,-2.9446,-2.9253,-2.9251,-2.925,0,-2.9414,-2.9425,-2.9457,-2.9454,-2.9423,-2.944,-2.9429,-2.9412,-2.9415,-2.9414,-2.9415,-2.9417,-2.9418,-2.9421,-2.9384,-2.9347,-2.9424,-2.9366,-2.9411,-2.9412,-2.9428,-2.9427,-2.9582,-2.9434,-2.9434,-2.9433,-2.9433,0,-2.9529,-2.9564,-2.9507,-2.9528,-2.9565,-2.9518,-2.9557,-2.9539,-2.9525,-2.9542,-2.9491,-2.9508,-2.9458,-2.947,-2.9442,-2.9475,-2.9477,-2.9464,-2.9455,-2.9467,-2.9469,-2.9468,-2.946,-2.9437,-2.9436,-2.9435,-2.9435,0,-2.9661,-2.9624,-2.9656,-2.9625,-2.9618,-2.9647,-2.962,-2.9638,-2.9614,-2.9635,-2.9638,-2.96,-2.9611,-2.9575,-2.9581,-2.9562,-2.961,-2.9592,-2.9614,-2.9608,-2.9655,-2.9651,-2.9813,-2.9832,-2.9673,-2.9675,-2.9676,0,-2.9735,-2.9761,-2.9732,-2.9738,-2.9729,-2.9741,-2.9744,-2.9699,-2.9704,-2.9691,-2.9711,-2.9718,-2.9721,-2.9742,-2.9715,-2.972,-2.9701,-2.9757,-2.9701,-2.9712,-2.97,-2.9698,-2.9701,-2.9769,-2.9771,-2.9772,-2.9774,0,-2.9872,-2.9853,-2.9858,-2.9857,-2.9862,-2.9859,-2.9853,-2.9862,-2.9814,-2.9823,-2.9833,-2.9836,-2.9841,-2.9849,-2.9848,-2.9836,-2.9798,-2.9792,-2.9802,-2.9814,-2.9825,-2.9819,-2.9645,-2.9788,-2.9786,-2.9785,-2.9785,-2.9784,-2.9977,-2.9996,-2.9979,-2.9986,-2.9977,-2.9973,-2.9988,-2.9965,-2.9973,-2.9973,-2.9947,-2.9963,-2.9949,-2.9943,-2.9936,-2.9948,-2.9922,-2.9938,-2.9941,-2.9945,-2.9953,-2.9825,-2.9948,-2.9948,-2.9947,-2.9947,-2.9947,0,-3.011,-3.0096,-3.0103,-3.0096,-3.0102,-3.0064,-3.0056,-3.0064,-3.0078,-3.0068,-3.0072,-3.0084,-3.0092,-3.0066,-3.007,-3.0085,-3.0067,-3.0087,-3.0085,-3.0083,-2.9977,-2.9966,-3.0102,-3.0102,-3.0102,-3.0102,-3.0102,-3.0101,-3.018,-3.021,-3.0189,-3.0215,-3.0201,-3.0215,-3.0213,-3.0209,-3.0201,-3.0217,-3.0222,-3.0205,-3.0189,-3.0192,-3.0197,-3.0189,-3.0193,-3.0219,-3.0205,-3.0106,-3.0091,-3.0076,-3.0066,-3.022,-3.0221,-3.0311,-3.0311,-3.0312]},{"header":{"parameterUnit":"m.s-1","parameterCategory":1,"la1":30.2991,"la2":30.254,"lo1":-89.0895,"lo2":-89.0444,"dy":0.0017,"dx":0.0017,"nx":28,"ny":28,"refTime":"2025-12-02T03:00:00:Z","depth":0,"parameterNumber":3,"parameterNumberName":"V-component_of_WINDS"},"data":[0,0,0,0,0,0,0,0,0,0,0,0,0,0,0,0,0,0,0,0,0,0,0,0,0,0,0,0,0,0,0,0,0,0,0,0,0,0,0,0,0,0,0,0,0,0,0,0,0,0,0,0,0,0,0,0,0,0,1.6038,1.6038,0,1.5993,1.5992,1.5992,1.5961,1.596,1.596,1.596,1.5909,1.5908,1.5907,0,0,0,0,0,0,0,0,0,0,0,0,0,1.6095,1.6094,1.6038,1.6038,1.6037,1.5993,1.5992,1.5992,1.5961,1.596,1.596,1.596,1.5909,1.5908,1.5906,0,0,0,0,0,0,0,0,0,0,0,0,0,1.6062,1.6094,1.6038,1.6017,1.6014,1.5993,1.5992,1.5991,1.5961,1.596,1.596,1.596,1.591,1.5908,1.5906,1.5902,0,0,1.5901,1.59,0,0,0,0,0,0,0,0,1.6064,1.606,1.602,1.6018,1.6015,1.5982,1.5993,1.5961,1.5961,1.5981,1.596,1.596,1.5933,1.593,1.5922,1.5899,1.5897,1.5901,1.59,1.5899,1.5898,0,0,0,0,0,0,0,1.6066,1.6062,1.602,1.602,1.6017,1.6008,1.6003,1.5987,1.5959,1.5979,1.5977,1.5972,1.5932,1.5923,1.592,1.5896,1.5901,1.5899,1.5898,1.5898,1.5868,1.5869,0,0,0,0,0,0,1.6072,1.6064,1.6022,1.6019,1.6039,1.6007,1.6001,1.5993,1.5959,1.5954,1.5972,1.5971,1.5926,1.5922,1.5918,1.5911,1.5899,1.5897,1.5896,1.5868,1.5868,1.5869,0,0,0,0,0,0,1.6074,1.6069,1.6023,1.6041,1.6034,1.6007,1.5997,1.5992,1.5984,1.5954,1.5949,1.5969,1.5926,1.5921,1.5906,1.5908,1.5897,1.5895,1.5868,1.5868,1.5869,1.5896,0,0,0,0,0,0,1.6076,1.607,1.6068,1.6041,1.6033,1.6014,1.5997,1.5992,1.5981,1.5979,1.595,1.5945,1.5925,1.5909,1.5905,1.5906,1.5894,1.5867,1.5868,1.5868,1.5894,1.5897,1.5899,0,0,0,0,0,1.6078,1.6077,1.6069,1.6064,1.6032,1.6014,1.6009,1.5989,1.5982,1.598,1.5961,1.5945,1.5909,1.5908,1.5903,1.5903,1.5867,1.5868,1.5868,1.5893,1.5896,1.5899,0,0,0,0,0,0,1.6103,1.6073,1.6063,1.6054,1.6037,1.6009,1.6005,1.5992,1.5976,1.5974,1.5948,1.5941,1.593,1.5915,1.5914,1.5897,1.5886,1.5886,1.5907,1.591,1.5912,1.5915,1.5892,0,0,0,0,0,1.6108,1.6098,1.6071,1.6065,1.6058,1.6033,1.6025,1.601,1.5991,1.5983,1.5963,1.5944,1.5928,1.5918,1.5902,1.5893,1.5885,1.589,1.5893,1.5895,1.5894,1.5888,1.589,1.5871,1.5871,1.5871,0,0,1.6118,1.61,1.6094,1.607,1.6055,1.6044,1.6027,1.6016,1.6007,1.5981,1.5967,1.5952,1.5928,1.5917,1.591,1.5904,1.5898,1.5896,1.5897,1.5896,1.5889,1.5891,1.5892,1.5871,1.5871,1.5871,0,0,1.6129,1.6115,1.6108,1.6094,1.6073,1.6057,1.6056,1.603,1.6019,1.6005,1.5986,1.5974,1.5947,1.5932,1.592,1.5927,1.5912,1.5922,1.5934,1.5928,1.593,1.5931,1.5933,1.5934,1.5922,1.5922,1.5922,0,1.6143,1.6126,1.6106,1.6096,1.6086,1.6064,1.6057,1.6044,1.6018,1.6011,1.6005,1.5971,1.5954,1.5938,1.594,1.5932,1.5929,1.5925,1.5932,1.5932,1.5933,1.5935,1.5936,1.5924,1.5924,1.5923,1.5923,0,1.6144,1.6133,1.613,1.6107,1.6097,1.6088,1.6066,1.6058,1.6045,1.6029,1.6015,1.5994,1.5973,1.5968,1.5954,1.5951,1.5947,1.5937,1.5925,1.5937,1.5938,1.5938,1.5926,1.5925,1.5925,1.5924,0,0,1.6169,1.6137,1.6136,1.6125,1.6101,1.6091,1.6081,1.6063,1.6056,1.6039,1.6029,1.6008,1.5999,1.5986,1.597,1.5965,1.5972,1.5955,1.5954,1.5958,1.5965,1.5973,1.5974,1.5962,1.5962,1.5962,1.5967,0,1.6176,1.6159,1.6141,1.613,1.6119,1.6099,1.6091,1.6074,1.6059,1.6047,1.603,1.6016,1.6004,1.5997,1.5991,1.5972,1.5973,1.5972,1.5952,1.5951,1.5958,1.5975,1.5983,1.5988,1.5968,1.5968,1.5968,0,1.6181,1.6167,1.6156,1.6133,1.6127,1.612,1.6102,1.6091,1.6072,1.6061,1.6048,1.6032,1.602,1.6011,1.5993,1.5993,1.5984,1.5973,1.5973,1.5969,1.596,1.5971,1.599,1.599,1.5968,1.5968,1.5968,0,1.62,1.6178,1.6168,1.616,1.6133,1.6129,1.6117,1.6097,1.6088,1.6071,1.6065,1.6047,1.6037,1.6023,1.6002,1.5997,1.5986,1.5975,1.5976,1.5977,1.5974,1.5974,1.5991,1.597,1.597,1.597,1.597,0,1.6209,1.6203,1.6177,1.617,1.6162,1.6142,1.6134,1.612,1.6103,1.6093,1.6074,1.6065,1.6039,1.6026,1.601,1.5998,1.5993,1.5984,1.5979,1.5985,1.5986,1.5978,1.5977,1.597,1.597,1.597,1.597,0,1.6229,1.6211,1.6199,1.6175,1.6169,1.6164,1.6143,1.6136,1.6121,1.6108,1.6104,1.608,1.6064,1.6043,1.602,1.6009,1.5998,1.5992,1.6005,1.6003,1.6005,1.6005,1.6016,1.6016,1.5996,1.5996,1.5996,0,1.6235,1.623,1.6206,1.6199,1.6189,1.6177,1.6168,1.6147,1.6138,1.6116,1.6111,1.6095,1.608,1.6056,1.6035,1.6017,1.601,1.6015,1.6007,1.6013,1.6009,1.6009,1.6008,1.6016,1.6017,1.6017,1.6017,0,1.6249,1.6241,1.6229,1.6214,1.6203,1.619,1.6176,1.6171,1.6147,1.6137,1.6122,1.6111,1.6088,1.6072,1.6052,1.6038,1.6023,1.602,1.602,1.6025,1.6033,1.6028,1.601,1.602,1.602,1.6019,1.6019,1.6019,1.6262,1.6256,1.6239,1.6226,1.6214,1.6201,1.6193,1.6178,1.6166,1.6147,1.6135,1.612,1.6101,1.6073,1.606,1.6047,1.6042,1.604,1.604,1.604,1.6042,1.6036,1.6044,1.6044,1.6043,1.6043,1.6043,0,1.6274,1.6262,1.6251,1.6232,1.6222,1.6212,1.6195,1.6187,1.6175,1.6159,1.6146,1.6128,1.6112,1.6091,1.6073,1.6067,1.6059,1.6063,1.6062,1.6059,1.6048,1.605,1.6069,1.6069,1.6069,1.6069,1.6069,1.6069,1.6279,1.6269,1.6259,1.6243,1.6231,1.6218,1.6209,1.6197,1.6185,1.6166,1.6153,1.6141,1.6122,1.6103,1.6088,1.6082,1.6076,1.6081,1.6073,1.6062,1.606,1.6058,1.606,1.608,1.608,1.6085,1.6085,1.6085]}]]